[[{"header":{"parameterUnit":"m.s-1","parameterCategory":1,"la1":30.2991,"la2":30.254,"lo1":-89.0895,"lo2":-89.0444,"dy":0.0017,"dx":0.0017,"nx":28,"ny":28,"refTime":"2025-12-14T03:00:00:Z","depth":0,"parameterNumber":2,"parameterNumberName":"U-component_of_WINDS"},"data":[0,0,0,0,0,0,0,0,0,0,0,0,0,0,0,0,0,0,0,0,0,0,0,0,0,0,0,0,0,0,0,0,0,0,0,0,0,0,0,0,0,0,0,0,0,0,0,0,0,0,0,0,0,0,0,0,0,0,-1.3435,-1.3435,0,-1.343,-1.343,-1.343,-1.3384,-1.3382,-1.3381,-1.338,-1.3377,-1.3378,-1.3379,0,0,0,0,0,0,0,0,0,0,0,0,0,-1.3408,-1.3408,-1.3435,-1.3435,-1.3435,-1.343,-1.343,-1.343,-1.3384,-1.3382,-1.3381,-1.338,-1.3377,-1.3378,-1.3379,0,0,0,0,0,0,0,0,0,0,0,0,0,-1.3413,-1.3409,-1.3435,-1.3411,-1.3409,-1.343,-1.343,-1.343,-1.3384,-1.3382,-1.3381,-1.3379,-1.3377,-1.3378,-1.338,-1.3423,0,0,-1.3384,-1.3385,0,0,0,0,0,0,0,0,-1.3413,-1.3414,-1.3415,-1.3413,-1.3411,-1.3406,-1.3419,-1.3428,-1.3385,-1.3394,-1.338,-1.3378,-1.3388,-1.3389,-1.3392,-1.3423,-1.3423,-1.3384,-1.3385,-1.3386,-1.3386,0,0,0,0,0,0,0,-1.3412,-1.3414,-1.3433,-1.3415,-1.3412,-1.3402,-1.3401,-1.342,-1.3401,-1.3393,-1.3389,-1.3389,-1.3387,-1.339,-1.3391,-1.3423,-1.3384,-1.3386,-1.3386,-1.3387,-1.3492,-1.3493,0,0,0,0,0,0,-1.3415,-1.3414,-1.3433,-1.3433,-1.3407,-1.3404,-1.3402,-1.3409,-1.34,-1.3397,-1.3391,-1.3387,-1.3389,-1.339,-1.3391,-1.3443,-1.3386,-1.3387,-1.3388,-1.349,-1.3492,-1.3494,0,0,0,0,0,0,-1.3415,-1.3417,-1.3433,-1.3422,-1.3424,-1.3406,-1.3414,-1.341,-1.3413,-1.3399,-1.3395,-1.3398,-1.3387,-1.3389,-1.3416,-1.3442,-1.3388,-1.3389,-1.3488,-1.3491,-1.3493,-1.3546,0,0,0,0,0,0,-1.3414,-1.3417,-1.3433,-1.3423,-1.3424,-1.3458,-1.3415,-1.3411,-1.3416,-1.3411,-1.3405,-1.3402,-1.3386,-1.3414,-1.3417,-1.3443,-1.339,-1.3485,-1.3489,-1.3492,-1.3542,-1.3551,-1.3558,0,0,0,0,0,-1.3413,-1.3449,-1.3434,-1.3437,-1.3444,-1.3459,-1.346,-1.344,-1.3418,-1.3434,-1.3425,-1.3402,-1.3438,-1.3417,-1.342,-1.3447,-1.3483,-1.3488,-1.3492,-1.3539,-1.3549,-1.3558,0,0,0,0,0,0,-1.3463,-1.3447,-1.3431,-1.3464,-1.3463,-1.3452,-1.3472,-1.3452,-1.3458,-1.3454,-1.3429,-1.3429,-1.346,-1.3456,-1.3432,-1.349,-1.3457,-1.3462,-1.3491,-1.3501,-1.3509,-1.351,-1.3392,0,0,0,0,0,-1.3478,-1.3491,-1.3476,-1.3507,-1.3507,-1.349,-1.3496,-1.348,-1.3479,-1.3479,-1.3472,-1.3472,-1.3484,-1.3492,-1.3501,-1.3541,-1.354,-1.3561,-1.3569,-1.3575,-1.3581,-1.3603,-1.3613,-1.3508,-1.3508,-1.3508,0,0,-1.3509,-1.3501,-1.3511,-1.3517,-1.3515,-1.353,-1.349,-1.3507,-1.3519,-1.3482,-1.3507,-1.3502,-1.3501,-1.3534,-1.3549,-1.3532,-1.3609,-1.3581,-1.3586,-1.3588,-1.3608,-1.3618,-1.3627,-1.3511,-1.351,-1.351,0,0,-1.3573,-1.3568,-1.3594,-1.3592,-1.3589,-1.3577,-1.3583,-1.3574,-1.3569,-1.3594,-1.3567,-1.358,-1.36,-1.3601,-1.3604,-1.3669,-1.3648,-1.3672,-1.3714,-1.3736,-1.3744,-1.3751,-1.3776,-1.3785,-1.3677,-1.3677,-1.3678,0,-1.3612,-1.3633,-1.361,-1.3629,-1.3633,-1.3599,-1.3626,-1.3626,-1.3626,-1.363,-1.3611,-1.3636,-1.3632,-1.3667,-1.3682,-1.3685,-1.3693,-1.3674,-1.3745,-1.3752,-1.3758,-1.3782,-1.3791,-1.3681,-1.368,-1.368,-1.368,0,-1.3682,-1.3697,-1.3718,-1.3719,-1.3725,-1.3748,-1.3729,-1.3738,-1.3722,-1.3713,-1.3739,-1.3734,-1.3742,-1.3749,-1.3734,-1.3781,-1.3771,-1.3749,-1.3716,-1.3772,-1.3793,-1.3802,-1.3685,-1.3684,-1.3683,-1.3682,0,0,-1.3779,-1.3766,-1.3775,-1.3775,-1.3769,-1.3781,-1.3802,-1.381,-1.3819,-1.382,-1.3839,-1.3857,-1.3836,-1.3839,-1.3824,-1.3843,-1.3896,-1.3818,-1.3818,-1.3834,-1.395,-1.3969,-1.3979,-1.3882,-1.3884,-1.3885,-1.3951,0,-1.3842,-1.3878,-1.3858,-1.3897,-1.3911,-1.3879,-1.3899,-1.3898,-1.3889,-1.3901,-1.3891,-1.3905,-1.3875,-1.3878,-1.3895,-1.3886,-1.392,-1.3881,-1.3901,-1.3902,-1.3904,-1.399,-1.401,-1.4073,-1.3959,-1.3961,-1.3962,0,-1.3921,-1.3925,-1.3966,-1.3958,-1.3963,-1.3981,-1.3987,-1.3998,-1.3996,-1.3989,-1.3993,-1.3973,-1.3994,-1.396,-1.3991,-1.3965,-1.3972,-1.3969,-1.3971,-1.3974,-1.3937,-1.3997,-1.4092,-1.4102,-1.3974,-1.3973,-1.3972,0,-1.399,-1.4006,-1.4032,-1.4033,-1.4024,-1.4038,-1.4034,-1.4031,-1.4037,-1.4042,-1.4046,-1.4054,-1.4059,-1.4066,-1.405,-1.4026,-1.4083,-1.4047,-1.4079,-1.408,-1.4094,-1.4094,-1.4193,-1.4096,-1.4095,-1.4095,-1.4095,0,-1.4064,-1.409,-1.4063,-1.408,-1.4109,-1.4086,-1.4115,-1.4109,-1.4106,-1.4122,-1.4094,-1.411,-1.4086,-1.4099,-1.4086,-1.4115,-1.4117,-1.4112,-1.4109,-1.4116,-1.4117,-1.4122,-1.4118,-1.4098,-1.4097,-1.4097,-1.4096,0,-1.4146,-1.4129,-1.4156,-1.4145,-1.4143,-1.4165,-1.4156,-1.4171,-1.416,-1.4181,-1.4184,-1.4168,-1.4182,-1.4166,-1.4179,-1.417,-1.4209,-1.4198,-1.421,-1.4207,-1.4241,-1.4239,-1.4348,-1.4362,-1.4254,-1.4255,-1.4256,0,-1.4195,-1.4215,-1.4206,-1.4214,-1.4213,-1.4226,-1.4232,-1.4209,-1.4217,-1.4217,-1.4233,-1.4245,-1.4253,-1.4278,-1.4268,-1.4278,-1.4269,-1.4306,-1.427,-1.4277,-1.4272,-1.4272,-1.4274,-1.4315,-1.4316,-1.4317,-1.4318,0,-1.4285,-1.4276,-1.4285,-1.4292,-1.43,-1.4304,-1.4306,-1.4315,-1.4291,-1.4302,-1.4316,-1.4322,-1.4335,-1.4348,-1.4356,-1.4353,-1.4333,-1.4329,-1.4337,-1.4346,-1.4352,-1.4351,-1.4232,-1.4327,-1.4326,-1.4325,-1.4325,-1.4324,-1.4354,-1.437,-1.4367,-1.4378,-1.4378,-1.438,-1.4395,-1.4386,-1.4397,-1.4405,-1.4391,-1.4409,-1.4408,-1.4416,-1.4416,-1.4431,-1.4415,-1.4426,-1.443,-1.4433,-1.4439,-1.4348,-1.4432,-1.4431,-1.4431,-1.4431,-1.4431,0,-1.4444,-1.444,-1.4451,-1.4455,-1.4464,-1.4442,-1.4443,-1.4453,-1.4469,-1.4469,-1.4478,-1.4495,-1.4507,-1.4498,-1.4509,-1.4522,-1.4513,-1.4526,-1.4526,-1.4526,-1.4452,-1.4444,-1.4533,-1.4533,-1.4533,-1.4533,-1.4533,-1.4533,-1.4492,-1.4519,-1.451,-1.4536,-1.4532,-1.4549,-1.4552,-1.4555,-1.4555,-1.4575,-1.4585,-1.4578,-1.4575,-1.4585,-1.4596,-1.4593,-1.4599,-1.4616,-1.461,-1.4541,-1.4531,-1.4522,-1.4515,-1.4617,-1.4617,-1.4683,-1.4684,-1.4684]},{"header":{"parameterUnit":"m.s-1","parameterCategory":1,"la1":30.2991,"la2":30.254,"lo1":-89.0895,"lo2":-89.0444,"dy":0.0017,"dx":0.0017,"nx":28,"ny":28,"refTime":"2025-12-14T03:00:00:Z","depth":0,"parameterNumber":3,"parameterNumberName":"V-component_of_WINDS"},"data":[0,0,0,0,0,0,0,0,0,0,0,0,0,0,0,0,0,0,0,0,0,0,0,0,0,0,0,0,0,0,0,0,0,0,0,0,0,0,0,0,0,0,0,0,0,0,0,0,0,0,0,0,0,0,0,0,0,0,-1.5232,-1.5232,0,-1.5248,-1.5248,-1.5249,-1.5233,-1.5232,-1.5232,-1.5231,-1.5247,-1.5248,-1.5249,0,0,0,0,0,0,0,0,0,0,0,0,0,-1.5186,-1.5187,-1.5232,-1.5232,-1.5232,-1.5248,-1.5249,-1.5249,-1.5233,-1.5232,-1.5232,-1.5231,-1.5247,-1.5248,-1.5249,0,0,0,0,0,0,0,0,0,0,0,0,0,-1.5205,-1.5188,-1.5232,-1.5227,-1.5226,-1.5248,-1.5249,-1.5249,-1.5233,-1.5232,-1.5231,-1.5231,-1.5246,-1.5248,-1.5249,-1.5277,0,0,-1.5254,-1.5254,0,0,0,0,0,0,0,0,-1.5204,-1.5206,-1.5227,-1.5227,-1.5227,-1.5238,-1.5238,-1.5258,-1.5234,-1.5231,-1.5231,-1.523,-1.5245,-1.5246,-1.5251,-1.5278,-1.5278,-1.5254,-1.5255,-1.5255,-1.5256,0,0,0,0,0,0,0,-1.5203,-1.5206,-1.5238,-1.5227,-1.5227,-1.5223,-1.5225,-1.5242,-1.5243,-1.5231,-1.523,-1.5232,-1.5244,-1.525,-1.5252,-1.5279,-1.5254,-1.5255,-1.5256,-1.5257,-1.533,-1.5331,0,0,0,0,0,0,-1.5202,-1.5205,-1.5238,-1.5239,-1.5213,-1.5225,-1.5226,-1.5235,-1.5242,-1.5243,-1.5233,-1.5231,-1.5248,-1.525,-1.5252,-1.5287,-1.5255,-1.5257,-1.5258,-1.5329,-1.533,-1.5332,0,0,0,0,0,0,-1.5201,-1.5205,-1.5237,-1.5222,-1.5225,-1.5226,-1.5236,-1.5236,-1.5242,-1.5244,-1.5244,-1.5238,-1.5247,-1.525,-1.5271,-1.5287,-1.5258,-1.5259,-1.5328,-1.533,-1.5331,-1.5355,0,0,0,0,0,0,-1.52,-1.5205,-1.5216,-1.5222,-1.5226,-1.5257,-1.5237,-1.5237,-1.5244,-1.5242,-1.5249,-1.5249,-1.5247,-1.5269,-1.5273,-1.5288,-1.526,-1.5327,-1.5329,-1.5331,-1.5353,-1.5357,-1.5361,0,0,0,0,0,-1.5198,-1.5221,-1.5216,-1.522,-1.524,-1.5257,-1.526,-1.5257,-1.5245,-1.5256,-1.5258,-1.5249,-1.5284,-1.5272,-1.5275,-1.5292,-1.5326,-1.5328,-1.533,-1.5351,-1.5356,-1.5361,0,0,0,0,0,0,-1.5216,-1.5222,-1.5216,-1.5242,-1.525,-1.5255,-1.5269,-1.5262,-1.5272,-1.527,-1.5265,-1.5267,-1.529,-1.5292,-1.5278,-1.532,-1.5303,-1.5306,-1.5317,-1.5322,-1.5326,-1.5326,-1.5261,0,0,0,0,0,-1.5223,-1.5237,-1.5241,-1.5263,-1.5268,-1.5267,-1.5275,-1.5272,-1.5279,-1.5282,-1.5285,-1.5292,-1.5305,-1.5313,-1.5325,-1.5352,-1.5354,-1.5365,-1.5369,-1.5373,-1.5376,-1.5392,-1.5398,-1.5339,-1.5339,-1.5339,0,0,-1.5238,-1.5242,-1.5252,-1.5267,-1.5273,-1.5288,-1.527,-1.5286,-1.5298,-1.5284,-1.5306,-1.5308,-1.5315,-1.534,-1.5351,-1.5343,-1.5393,-1.5376,-1.5378,-1.538,-1.5395,-1.5401,-1.5406,-1.5341,-1.5341,-1.534,0,0,-1.5272,-1.5277,-1.5297,-1.5302,-1.5311,-1.5311,-1.5315,-1.5322,-1.5323,-1.5344,-1.5335,-1.5348,-1.5369,-1.5376,-1.5382,-1.5419,-1.5412,-1.5423,-1.5445,-1.546,-1.5465,-1.5469,-1.5484,-1.5489,-1.5426,-1.5426,-1.5426,0,-1.5289,-1.5312,-1.5307,-1.5325,-1.5332,-1.5321,-1.5342,-1.5347,-1.5359,-1.5365,-1.5355,-1.5383,-1.5387,-1.5414,-1.5423,-1.5428,-1.5434,-1.5423,-1.5465,-1.5469,-1.5472,-1.5487,-1.5492,-1.5427,-1.5427,-1.5427,-1.5427,0,-1.5333,-1.5349,-1.5364,-1.5376,-1.5385,-1.5404,-1.5402,-1.5412,-1.5408,-1.5409,-1.5431,-1.5435,-1.5448,-1.5454,-1.545,-1.5481,-1.5476,-1.5465,-1.5449,-1.548,-1.5493,-1.5498,-1.5429,-1.5429,-1.5429,-1.5428,0,0,-1.538,-1.539,-1.5396,-1.5402,-1.5411,-1.5423,-1.5441,-1.5455,-1.5463,-1.5471,-1.5487,-1.5506,-1.5497,-1.5504,-1.55,-1.5514,-1.5545,-1.5502,-1.5502,-1.5511,-1.5581,-1.559,-1.5596,-1.5539,-1.554,-1.5541,-1.5581,0,-1.5417,-1.5449,-1.5446,-1.5477,-1.5492,-1.5482,-1.5498,-1.5505,-1.5506,-1.5519,-1.5519,-1.5534,-1.552,-1.5524,-1.5537,-1.5538,-1.5559,-1.5535,-1.5555,-1.5556,-1.5555,-1.5603,-1.5613,-1.565,-1.5586,-1.5587,-1.5587,0,-1.5464,-1.5475,-1.5507,-1.5515,-1.5521,-1.5536,-1.5548,-1.556,-1.5568,-1.5568,-1.5576,-1.557,-1.5588,-1.557,-1.5596,-1.558,-1.5588,-1.559,-1.5591,-1.5594,-1.5575,-1.5609,-1.5662,-1.5668,-1.5595,-1.5595,-1.5594,0,-1.5497,-1.552,-1.5543,-1.5548,-1.5557,-1.5567,-1.5571,-1.5578,-1.5587,-1.5597,-1.5603,-1.5615,-1.5622,-1.5632,-1.563,-1.5616,-1.5657,-1.5638,-1.5658,-1.5658,-1.5668,-1.5668,-1.5725,-1.567,-1.567,-1.567,-1.567,0,-1.5539,-1.556,-1.5558,-1.5573,-1.5596,-1.5591,-1.5615,-1.5617,-1.5623,-1.5638,-1.5629,-1.5643,-1.5638,-1.5652,-1.5649,-1.5672,-1.5675,-1.5676,-1.5676,-1.5678,-1.5678,-1.5684,-1.5682,-1.5671,-1.5671,-1.5671,-1.567,0,-1.5581,-1.5581,-1.5606,-1.5612,-1.5614,-1.5631,-1.5636,-1.565,-1.565,-1.5669,-1.5673,-1.5673,-1.5689,-1.5687,-1.5704,-1.5703,-1.5732,-1.5727,-1.573,-1.5729,-1.575,-1.5749,-1.5814,-1.5823,-1.5761,-1.5761,-1.5762,0,-1.5609,-1.5625,-1.5634,-1.5643,-1.5648,-1.5663,-1.5672,-1.5668,-1.5678,-1.5689,-1.5701,-1.5716,-1.5728,-1.5753,-1.5755,-1.5769,-1.5765,-1.5787,-1.5767,-1.577,-1.5768,-1.5768,-1.577,-1.5792,-1.5793,-1.5793,-1.5794,0,-1.5659,-1.5659,-1.5672,-1.5686,-1.5697,-1.5707,-1.5717,-1.5725,-1.5722,-1.5733,-1.5749,-1.5759,-1.5777,-1.5792,-1.5805,-1.5809,-1.5801,-1.58,-1.5805,-1.5809,-1.5811,-1.5812,-1.5743,-1.5799,-1.5798,-1.5798,-1.5797,-1.5797,-1.5697,-1.5711,-1.572,-1.5735,-1.5742,-1.5751,-1.5765,-1.5767,-1.578,-1.5796,-1.5792,-1.5811,-1.5818,-1.5835,-1.584,-1.5855,-1.5847,-1.5854,-1.5857,-1.5859,-1.5863,-1.5807,-1.5857,-1.5856,-1.5856,-1.5856,-1.5856,0,-1.5748,-1.5753,-1.5767,-1.5781,-1.5794,-1.5785,-1.5795,-1.5806,-1.5823,-1.5831,-1.5843,-1.5863,-1.5877,-1.588,-1.5895,-1.5906,-1.5903,-1.591,-1.591,-1.5912,-1.5868,-1.5863,-1.5912,-1.5912,-1.5912,-1.5912,-1.5912,-1.5912,-1.5776,-1.5801,-1.5801,-1.5829,-1.5833,-1.5852,-1.5859,-1.5868,-1.5874,-1.5896,-1.5909,-1.5911,-1.5917,-1.5932,-1.5945,-1.5946,-1.5952,-1.5961,-1.596,-1.592,-1.5914,-1.5909,-1.5904,-1.5962,-1.5962,-1.6003,-1.6003,-1.6004]}]]